Location: downtown San Diego
(32.7310°N, 117.1990°W)
Time: 23:29:07
(UTC-08:00)

Cosmos 2058 - Pass Details

Date: 12 July 2018
Orbit: 563 x 584 km, 82.5° (Epoch: 20 November)

Event Time Altitude Azimuth Distance (km) Brightness Sun altitude
Exits shadow 20:30:48 - 162° (SSE) 2,633 5.8 -6.7°
Reaches altitude 10° 20:32:52 10° 152° (SSE) 1,855 5.0 -7.1°
Maximum altitude 20:36:26 30° 91° (E) 1,031 3.8 -7.7°
Drops below altitude 10° 20:40:01 10° 30° (NNE) 1,860 5.6 -8.4°
Sets 20:42:23 0° 19° (NNE) 2,760 6.6 -8.8°
